Volver al catálogo

STARLINK-31143

ActivoComunicacionesVLEO
NORAD 58770·PAYLOAD·🇺🇸 United States

Lanzado Jan 14, 2024 desde Vandenberg Space Force Base

Loading…

Próximos Pases (próximas 24 horas)

TLE

ActualizadoSource: CelesTrak SupGP

Época: Sep 14, 2026, 21:07 UTC

1 58770C 24011F   26257.88034722  .00033169  00000+0  97976-3 0  2570
2 58770  53.1581 212.1709 0001414  91.1300 311.0990 15.34380554    10

Sigue STARLINK-31143 en tiempo real con AllMySat

Download on the App Store